Jackson, KY

9:09 AM EST on December 11, 2019 (GMT -0500)
Carroll

Weather History for KJKL - November, 2019

Change the Weather History Date:

Tuesday, November 12, 2019

  Actual Average Record
Temperature  
Mean Temperature 24 °F 50 °F  
Max Temperature 33 °F 59 °F 73 °F (1985)
Min Temperature 16 °F 41 °F 19 °F (1995)
Degree Days  
Heating Degree Days 40 15  
Month to date heating degree days 266 162  
Since 1 July heating degree days 443 459  
Cooling Degree Days 0 0  
Month to date cooling degree days 0 0  
Year to date cooling degree days 1579 1150  
Moisture  
Dew Point 23 °F    
Average Humidity 90    
Maximum Humidity 100    
Minimum Humidity 78    
Precipitation  
Precipitation 0.14 in 0.13 in 0.55 in (1992)
Month to date precipitation 0.74 1.48  
Year to date precipitation 46.21 41.68  
Snow  
Snow 1.20 in 0.00 in 0.90 in (2013)
Month to date snowfall 1.2 0.1  
Since 1 July snowfall 1.2 0.2  
Since 1 September snowfall 1.2 0.2  
Snow Depth 1.00 in    
Sea Level Pressure  
Sea Level Pressure 30.23 in    
Wind  
Wind Speed 7 mph ()    
Max Wind Speed 15 mph    
Max Gust Speed 24 mph    
Visibility 4.2 miles    
Events Fog , Snow    
T = Trace of Precipitation, MM = Missing Value Source: Averaged Metar Reports

Daily Weather History Graph

Daily Weather History Graph

Search for Another Location

Airport or City:

Astronomy

Nov. 12, 2019 Rise Set
Actual Time 7:09 AM EST 5:24 PM EST
Civil Twilight 6:41 AM EST 5:52 PM EST
Nautical Twilight 6:10 AM EST 6:23 PM EST
Astronomical Twilight 5:39 AM EST 6:54 PM EST
Moon 5:50 PM EST (11/12) 7:01 AM EST (11/12)
Length of Visible Light 11h 10m
Length of Day
10h 15m
Full, 100% of the Moon is Illuminated
Nov 12
Full
Nov 19
Last Quarter
Nov 26
New
Dec 4
First Quarter
Dec 12
Full

Hourly Weather History & Observations

Time (EST) Temp. Windchill Dew Point Humidity Pressure Visibility Wind Dir Wind Speed Gust Speed Precip Events Conditions
12:17 AM 32.0 °F 22.1 °F 30.9 °F 96% 30.08 in 1.2 mi NW 13.8 mph 21.9 mph 0.04 in Snow Light Snow
12:38 AM 32.0 °F 26.4 °F 30.9 °F 96% 30.08 in 1.2 mi WNW 5.8 mph - 0.05 in Snow Light Snow
12:48 AM 30.2 °F 23.4 °F 30.2 °F 100% 30.09 in 1.0 mi WNW 6.9 mph - 0.06 in Snow Light Snow
12:53 AM 30.9 °F 25.2 °F 30.9 °F 100% 30.09 in 1.0 mi Variable 5.8 mph - 0.07 in Snow Light Snow
1:22 AM 30.9 °F 22.2 °F 30.0 °F 96% 30.10 in 2.0 mi NW 10.4 mph 20.7 mph 0.01 in Snow Light Snow
1:27 AM 30.9 °F 26.2 °F 30.0 °F 96% 30.10 in 1.5 mi Variable 4.6 mph 20.7 mph 0.01 in Snow Light Snow
1:47 AM 30.2 °F 23.4 °F 30.2 °F 100% 30.11 in 2.0 mi NW 6.9 mph - 0.02 in Snow Light Snow
1:53 AM 30.0 °F 23.2 °F 30.0 °F 100% 30.12 in 3.0 mi NNW 6.9 mph - 0.02 in Snow Light Snow
2:00 AM 30.0 °F 24.1 °F 30.0 °F 100% 30.12 in 2.5 mi NW 5.8 mph - 0.00 in Snow Light Snow
2:06 AM 30.0 °F 24.1 °F 30.0 °F 100% 30.12 in 1.5 mi NW 5.8 mph - 0.00 in Snow Light Snow
2:14 AM 30.0 °F 25.2 °F 30.0 °F 100% 30.12 in 1.2 mi WNW 4.6 mph - 0.01 in Snow Light Snow
2:53 AM 30.0 °F 25.2 °F 30.0 °F 100% 30.14 in 1.2 mi Variable 4.6 mph - 0.02 in Snow Light Snow
3:01 AM 30.0 °F 24.1 °F 30.0 °F 100% 30.12 in 1.2 mi Variable 5.8 mph - 0.00 in Snow Light Snow
3:43 AM 28.0 °F 19.3 °F 27.0 °F 96% 30.14 in 1.5 mi NNW 9.2 mph 21.9 mph 0.02 in Snow Light Snow
3:49 AM 28.4 °F 21.2 °F 26.6 °F 93% 30.14 in 1.5 mi Variable 6.9 mph 17.3 mph 0.02 in Snow Light Snow
3:53 AM 28.0 °F 20.8 °F 27.0 °F 96% 30.15 in 1.5 mi Variable 6.9 mph - 0.02 in Snow Light Snow
3:55 AM 28.0 °F 22.8 °F 27.0 °F 96% 30.14 in 1.8 mi Variable 4.6 mph - 0.00 in Snow Light Snow
4:02 AM 28.0 °F 22.8 °F 26.1 °F 92% 30.14 in 1.8 mi Variable 4.6 mph - 0.00 in Snow Light Snow
4:13 AM 27.0 °F 20.5 °F 26.1 °F 96% 30.15 in 2.5 mi Variable 5.8 mph - 0.00 in Snow Light Snow
4:41 AM 27.0 °F 19.5 °F 26.1 °F 96% 30.15 in 4.0 mi Variable 6.9 mph 19.6 mph 0.00 in Snow Light Snow
4:48 AM 26.6 °F 20.0 °F 24.8 °F 93% 30.16 in 7.0 mi Variable 5.8 mph 19.6 mph 0.00 in Snow Light Snow
4:53 AM 27.0 °F 20.5 °F 25.0 °F 92% 30.18 in 7.0 mi Variable 5.8 mph - 0.00 in Snow Light Snow
5:50 AM 26.6 °F 18.2 °F 24.8 °F 93% 30.18 in 10.0 mi NNW 8.1 mph - 0.00 in   Overcast
5:53 AM 27.0 °F 18.7 °F 25.0 °F 92% 30.20 in 10.0 mi NW 8.1 mph - 0.00 in   Overcast
6:21 AM 27.0 °F 21.6 °F 24.1 °F 89% 30.20 in 10.0 mi Variable 4.6 mph 17.3 mph N/A   Overcast
6:53 AM 26.1 °F - 25.0 °F 96% 30.23 in 10.0 mi North - - N/A   Overcast
7:14 AM 26.1 °F 18.4 °F 23.0 °F 88% 30.23 in 10.0 mi Variable 6.9 mph - N/A   Overcast
7:53 AM 25.0 °F 13.6 °F 19.9 °F 81% 30.27 in 10.0 mi NNW 12.7 mph 20.7 mph N/A   Overcast
9:53 AM 25.0 °F 18.1 °F 19.0 °F 78% 30.30 in 7.0 mi Variable 5.8 mph - 0.00 in Snow Light Snow
10:53 AM 24.1 °F 15.2 °F 19.0 °F 81% 30.31 in 10.0 mi NW 8.1 mph - 0.00 in   Overcast
11:53 AM 24.1 °F 17.0 °F 19.0 °F 81% 30.32 in 9.0 mi Variable 5.8 mph - N/A   Overcast
12:48 PM 23.0 °F 13.1 °F 17.6 °F 80% 30.28 in 2.5 mi NW 9.2 mph - 0.00 in Snow Light Snow
12:53 PM 23.0 °F 13.1 °F 18.0 °F 81% 30.32 in 4.0 mi NW 9.2 mph - 0.00 in Snow Light Snow
1:38 PM 23.0 °F 15.8 °F 19.0 °F 85% 30.28 in 2.5 mi Variable 5.8 mph - 0.00 in Snow Light Snow
1:44 PM 23.0 °F - 19.9 °F 88% 30.28 in 1.5 mi North - - 0.00 in Snow Light Snow
1:53 PM 23.0 °F 15.8 °F 19.0 °F 85% 30.33 in 1.5 mi Variable 5.8 mph - 0.00 in Snow Light Snow
1:57 PM 23.0 °F 15.8 °F 19.0 °F 85% 30.29 in 2.0 mi Variable 5.8 mph - 0.00 in Snow Light Snow
2:14 PM 23.0 °F 15.8 °F 19.0 °F 85% 30.29 in 5.0 mi Variable 5.8 mph - 0.00 in Snow Light Snow
2:32 PM 23.0 °F 13.9 °F 19.0 °F 85% 30.29 in 1.8 mi West 8.1 mph - 0.00 in Snow Light Snow
2:38 PM 23.0 °F 14.7 °F 19.0 °F 85% 30.29 in 0.8 mi NW 6.9 mph - 0.00 in Snow Light Snow
2:53 PM 23.0 °F 14.7 °F 19.0 °F 85% 30.33 in 1.2 mi NW 6.9 mph - 0.00 in Snow Light Snow
3:09 PM 23.0 °F 15.8 °F 19.0 °F 85% 30.29 in 1.5 mi Variable 5.8 mph - 0.00 in Snow Light Snow
3:16 PM 21.9 °F 13.4 °F 19.0 °F 89% 30.29 in 0.5 mi NW 6.9 mph - 0.01 in Fog , Snow Snow
3:48 PM 23.0 °F - 17.6 °F 80% 30.31 in 4.0 mi North - - 0.01 in Snow Light Snow
3:53 PM 23.0 °F 17.0 °F 18.0 °F 81% 30.35 in 6.0 mi Variable 4.6 mph - 0.01 in Snow Light Snow
4:20 PM 21.9 °F 12.5 °F 16.0 °F 78% 30.31 in 5.0 mi NW 8.1 mph - 0.00 in Snow Light Snow
4:25 PM 21.9 °F 13.4 °F 16.0 °F 78% 30.32 in 1.5 mi NNW 6.9 mph - 0.00 in Snow Light Snow
4:35 PM 21.0 °F 12.4 °F 18.0 °F 88% 30.32 in 0.8 mi NW 6.9 mph - 0.00 in Snow Light Snow
4:47 PM 21.2 °F 13.6 °F 17.6 °F 86% 30.32 in 1.8 mi Variable 5.8 mph - 0.00 in Snow Light Snow
4:49 PM 21.2 °F 16.4 °F 17.6 °F 86% 30.32 in 3.0 mi North 3.5 mph - 0.00 in Snow Light Snow
4:53 PM 21.0 °F 13.4 °F 18.0 °F 88% 30.37 in 5.0 mi NNW 5.8 mph - 0.00 in Snow Light Snow
5:53 PM 19.9 °F 12.1 °F 14.0 °F 78% 30.38 in 10.0 mi Variable 5.8 mph - 0.00 in   Partly Cloudy
6:53 PM 19.9 °F 14.9 °F 15.1 °F 81% 30.42 in 10.0 mi NW 3.5 mph - N/A   Overcast
7:13 PM 19.0 °F 12.3 °F 16.0 °F 88% 30.37 in 10.0 mi NW 4.6 mph - N/A   Mostly Cloudy
7:20 PM 19.0 °F 11.1 °F 16.0 °F 88% 30.37 in 10.0 mi NW 5.8 mph - N/A   Scattered Clouds
7:53 PM 19.0 °F 10.0 °F 15.1 °F 85% 30.43 in 10.0 mi NW 6.9 mph - N/A   Partly Cloudy